Location: Saint John
(45.2733°N, 66.0633°W)
Time: 10:03:18
(UTC-03:00)

ISS - Visible Passes

Search period start: 20 May 2019 00:00
Search period end: 30 May 2019 00:00
Orbit: 407 x 410 km, 51.6° (Epoch: 20 May)

Date Brightness Start Highest point End Pass type
(mag) Time Alt. Az. Time Alt. Az. Time Alt. Az.
20 May -1.5 00:53:03 10° WNW 00:55:53 26° N 00:58:44 10° ENE visible
20 May -2.6 02:29:49 10° NW 02:33:01 43° NNE 02:36:12 10° E visible
20 May -3.3 04:06:28 10° WNW 04:09:33 36° SW 04:12:38 10° SSE visible
20 May -3.3 22:24:33 10° WSW 22:27:49 63° NNW 22:31:06 10° ENE visible
21 May -1.6 00:01:56 10° WNW 00:04:49 27° N 00:07:42 10° NE visible
21 May -2.1 01:38:56 10° NW 01:41:59 33° NNE 01:42:20 32° NNE visible
21 May -3.9 21:33:36 10° WSW 21:36:54 83° SE 21:40:12 10° ENE visible
21 May -1.8 23:10:46 10° WNW 23:13:44 30° NNW 23:16:43 10° NE visible
22 May -1.7 00:47:59 10° NW 00:50:56 28° N 00:52:17 21° NE visible
22 May -1.1 02:24:31 10° WNW 02:24:58 13° WNW 02:24:58 13° WNW visible
22 May -2.2 22:19:34 10° W 22:22:40 37° NNW 22:25:48 10° NE visible
22 May -1.6 23:56:58 10° WNW 23:59:49 26° N 00:02:39 10° ENE visible
23 May -1.9 01:33:37 10° NW 01:35:20 26° NW 01:35:20 26° NW visible
23 May -2.8 21:28:25 10° W 21:31:38 51° NNW 21:34:53 10° NE visible
23 May -1.6 23:05:51 10° WNW 23:08:42 26° N 23:11:33 10° ENE visible
24 May -2.4 00:42:43 10° NW 00:45:51 38° NNE 00:45:52 38° NNE visible
24 May -1.7 22:14:39 10° WNW 22:17:35 28° N 22:20:30 10° NE visible
24 May -2.0 23:51:46 10° NW 23:54:45 30° NNE 23:56:25 19° ENE visible
25 May -1.3 01:28:16 10° WNW 01:29:07 17° WNW 01:29:07 17° WNW visible
25 May -1.7 23:00:45 10° NW 23:03:38 27° N 23:06:31 10° ENE visible
26 May -2.7 00:37:20 10° WNW 00:39:44 42° NW 00:39:44 42° NW visible
26 May -1.6 22:09:38 10° WNW 22:12:29 26° N 22:15:19 10° ENE visible
26 May -2.8 23:46:23 10° NW 23:49:35 44° NNE 23:50:21 36° ENE visible
27 May -0.8 01:23:03 10° WNW 01:23:04 10° WNW 01:23:04 10° WNW visible
27 May -2.3 22:55:25 10° NW 22:58:29 33° NNE 23:01:00 13° ENE visible
28 May -2.2 00:31:56 10° WNW 00:33:43 29° WNW 00:33:43 29° WNW visible
28 May -1.9 22:04:24 10° NW 22:07:20 28° N 22:10:15 10° ENE visible
28 May -3.9 23:40:55 10° WNW 23:44:14 80° NNE 23:44:24 76° ENE visible
29 May -3.2 22:49:57 10° NW 22:53:11 52° NNE 22:55:05 22° E visible
